Flag for U.S.A. Weather past 2 weeks in Hudson, Wisconsin, U.S.A.

Now
63 °F

Clear.


Feels Like: 63 °F
Forecast: 56 / 71 °F
Wind: 3 mph from Southwest

Location: St. Paul Downtown Holman Field

Current Time: May 25, 2015 at 11:56:47 PM

Latest Report: May 25, 2015 at 10:53 PM


Visibility: 10 mi

Pressure: 29.77 "Hg

Humidity: 84%

Dew point: 58 °F

Location of HudsonLocation

Historic Weather in Hudson — Graph

°F

Hudson temperature yesterday

Maximum temperature yesterday: 63 °F (at 12:53 AM)
Minimum temperature yesterday: 58 °F (at 9:53 PM)
Average temperature yesterday: 60 °F

Past Weeks' High & Low Weather Summary

 TemperatureHumidityPressure
High75 °F (May 16, 5:53 PM)100% (May 14, 8:53 PM)30.43 "Hg (May 14, 8:53 PM)
Low35 °F (May 19, 5:53 AM)25% (May 21, 6:53 PM)29.54 "Hg (May 17, 5:53 PM)
Average56 °F70%30.02 "Hg
* Reported May 10 10:53 PM — May 25 10:53 PM, Hudson, Weather by CustomWeather, © 2015

Note: Actual official high and low records may vary slightly from our data, if they occured in-between our weather recording intervals... More about our weather records

Advertising

Hudson weather history for previous 24 hours

 ConditionsComfort  
Time TempWeatherWind HumidityBarometerVisibility
10:53 PM
Mon, May 25
63 °FClear.3 mph84%29.77 "Hg10 mi
9:53 PM62 °FClear.No wind90%29.73 "Hg10 mi
8:53 PM68 °FScattered clouds.5 mph70%29.73 "Hg10 mi
7:53 PM71 °FPassing clouds.6 mph63%29.71 "Hg10 mi
6:53 PM71 °FScattered clouds.9 mph66%29.71 "Hg10 mi
5:53 PM72 °FBroken clouds.14 mph64%29.72 "Hg10 mi
4:53 PM71 °FPartly sunny.10 mph68%29.72 "Hg10 mi
3:53 PM68 °FMostly cloudy.12 mph70%29.72 "Hg10 mi
2:53 PM67 °FOvercast.13 mph73%29.71 "Hg10 mi
1:53 PM66 °FMostly cloudy.13 mph75%29.70 "Hg10 mi
12:53 PM66 °FMore clouds than sun.16 mph75%29.70 "Hg10 mi
11:53 AM64 °FMostly cloudy.9 mph84%29.70 "Hg10 mi
10:53 AM64 °FPartly sunny.10 mph87%29.68 "Hg10 mi
9:53 AM63 °FOvercast.7 mph93%29.67 "Hg10 mi
9:02 AM60 °FFog.6 mph100%29.67 "Hg4 mi
8:53 AM60 °FFog.7 mph100%29.66 "Hg3 mi
7:53 AM59 °FFog.5 mph100%29.66 "Hg1 mi
6:53 AM58 °FFog.3 mph100%29.67 "Hg2 mi
5:53 AM58 °FFog.5 mph100%29.67 "Hg4 mi
4:53 AM58 °FFog.6 mph97%29.68 "Hg5 mi
4:04 AM58 °FLight rain. Overcast.7 mph97%29.69 "Hg8 mi
3:53 AM58 °FLight rain. Fog.6 mph97%29.69 "Hg6 mi
2:53 AM58 °FMostly cloudy.7 mph97%29.70 "Hg7 mi
1:53 AM58 °FLight rain. Low clouds.9 mph97%29.73 "Hg7 mi
12:53 AM58 °FLight rain. Low clouds.6 mph97%29.75 "Hg9 mi
11:53 PM
Sun, May 24
58 °FLight rain. Fog.6 mph97%29.78 "Hg5 mi
Weather by CustomWeather, © 2015

See weather overviewHow to use our weather pages